Temp
20 20 20 20 20 19 19 19 19 19 19 19 18 18 18 18 18 18 18 18 17 17 17 16 16 16 16 16 16 16 16 16 16 16 16 16 16 15 15 15 15 15 15 15 15 14 14 14 14 14 13 13 13 13 13 13 13 14 14 13 13 12 12 12 11 12 13 14 14 14 14 14 15 14 14 14 15 15 15 15 15 15 15 15 15
20 20 20 20 20 20 20 19 19 19 19 19 19 19 19 19 18 18 18 18 18 17 17 17 17 16 16 16 16 16 16 16 17 16 16 16 16 16 16 15 15 15 15 15 15 15 14 14 14 14 13 13 13 13 13 13 13 13 13 13 13 13 12 12 12 12 12 14 14 14 14 14 14 14 14 14 14 14 15 15 15 15 15 15 15
21 21 20 20 20 20 20 20 19 19 19 19 19 19 19 19 19 19 18 18 18 17 17 17 17 16 16 16 16 16 17 17 17 16 16 16 16 16 16 16 16 15 15 15 15 15 15 14 14 14 13 13 13 13 13 13 13 13 13 13 13 13 13 12 12 12 12 13 13 14 14 14 14 14 14 14 14 14 14 14 14 15 14 14 15
21 21 20 20 20 20 20 20 20 19 19 19 19 19 19 19 19 19 19 18 18 18 17 17 17 16 16 16 16 16 16 17 17 17 16 16 16 16 16 16 16 16 16 15 15 15 15 14 14 14 14 13 13 13 13 13 13 13 13 13 13 13 13 13 12 12 11 11 12 13 13 13 13 13 13 13 14 14 14 14 14 14 15 14 14
21 21 21 20 20 20 20 20 20 20 19 19 19 19 19 19 19 19 19 18 18 18 17 17 17 16 16 16 16 16 16 17 17 17 17 17 17 17 17 17 16 16 16 16 15 15 15 15 14 14 14 14 14 13 13 13 13 13 13 13 13 13 13 13 12 12 11 11 11 12 13 13 13 13 13 13 13 14 14 14 14 14 14 15 14
21 21 21 21 20 20 20 20 20 20 20 20 20 20 20 19 19 19 19 18 18 18 17 17 17 17 16 16 16 16 16 17 17 17 17 17 17 17 17 17 17 16 16 16 15 15 15 15 14 14 13 14 14 14 14 13 13 13 13 13 13 13 13 13 13 12 12 11 11 12 13 13 13 13 13 12 12 13 13 13 14 14 14 14 15
22 21 21 21 21 21 20 20 20 20 20 20 20 20 20 20 19 19 19 18 18 18 17 17 17 17 17 17 17 16 16 17 17 17 17 17 17 17 17 17 17 16 16 16 15 15 15 15 14 14 14 13 14 14 14 14 14 14 14 14 13 13 13 13 13 13 12 12 12 12 12 12 13 13 13 13 12 12 12 12 12 13 13 13 14
22 22 21 21 21 21 21 21 20 20 20 20 20 20 20 20 20 19 19 19 18 18 18 17 17 17 17 17 17 17 17 17 17 17 17 17 17 17 17 17 17 16 16 16 15 15 15 15 15 14 14 13 13 14 14 14 14 14 14 14 13 13 13 13 13 13 13 12 12 12 12 12 12 12 12 12 12 11 11 11 11 11 12 12 13
22 22 21 21 21 21 21 21 20 20 20 20 20 20 20 20 20 19 19 19 19 18 18 17 17 17 17 17 17 17 17 17 17 17 17 17 17 17 17 17 17 16 16 16 16 15 15 15 15 14 14 13 13 13 14 14 14 14 14 14 14 13 13 13 13 13 13 12 12 12 11 11 12 11 11 11 11 10 11 10 10 11 11 12 12
22 22 21 22 22 21 21 21 21 20 20 20 20 20 20 20 19 19 19 19 19 19 18 18 18 17 17 17 17 17 17 17 17 17 17 17 17 17 17 17 17 16 16 16 16 16 15 15 15 14 14 14 13 13 14 14 14 14 14 14 13 13 13 13 13 13 12 12 12 12 11 11 11 11 10 10 10 10 10 10 10 10 10 11 12
22 22 22 22 22 22 21 21 21 20 20 20 20 20 20 20 20 19 19 19 19 19 19 18 18 18 18 18 17 17 17 17 17 17 17 17 17 17 17 17 17 17 16 16 16 16 16 15 15 15 14 14 14 13 13 14 14 14 14 14 13 13 13 13 13 13 12 12 12 12 11 11 11 11 10 10 10 10 10 10 10 10 10 10 10
22 22 22 22 22 22 21 21 21 20 21 21 21 21 20 20 20 19 19 19 19 19 19 19 19 18 18 18 18 18 18 18 18 18 17 17 17 17 17 17 17 17 16 16 16 16 16 16 15 15 15 15 14 14 14 14 14 14 14 14 14 14 13 13 13 13 12 12 12 12 11 11 11 11 11 10 10 9 9 9 9 9 10 10 10
23 22 22 22 22 22 22 21 21 21 21 21 21 21 20 20 20 20 20 20 19 19 19 19 19 19 18 18 18 18 18 18 18 18 18 18 17 17 17 17 17 17 17 16 16 16 16 16 16 15 15 15 15 15 14 14 14 14 14 14 14 14 14 14 13 13 13 12 12 12 12 12 11 11 11 10 10 9 9 9 9 9 9 10 10
23 22 22 22 22 22 22 21 21 21 21 21 21 21 21 21 21 20 20 20 19 19 19 19 19 19 18 18 18 18 18 18 18 18 18 18 18 17 17 17 17 17 17 17 16 16 16 16 16 16 16 15 15 15 15 14 14 14 14 14 14 14 14 14 14 13 13 12 12 12 12 12 12 12 11 11 10 10 9 9 9 9 10 10 10
23 22 22 22 22 22 22 22 22 21 21 21 21 21 21 21 21 21 21 20 20 20 20 20 19 19 19 19 18 18 19 19 19 18 18 18 18 18 17 17 17 17 17 17 16 16 16 16 16 16 16 15 15 15 15 15 14 14 14 14 14 14 14 14 14 14 13 13 12 13 13 12 12 12 11 11 10 10 9 9 9 9 9 9 10
22 22 22 22 22 22 22 22 22 22 22 21 21 21 21 21 21 21 21 21 21 20 20 20 20 20 20 19 18 19 19 20 19 19 19 18 18 18 17 17 17 17 17 17 17 17 16 16 16 16 16 16 16 15 15 15 15 14 14 14 14 14 14 15 15 14 14 13 13 13 13 12 12 12 11 11 10 10 10 9 9 9 9 9 9
21 22 22 23 23 23 22 22 22 22 21 21 21 21 21 21 21 21 20 20 20 20 20 21 21 20 20 20 19 19 20 20 20 20 19 19 18 17 17 17 17 17 17 17 17 17 17 16 16 16 16 16 16 16 15 15 14 14 14 14 14 14 14 15 15 14 14 13 13 13 12 12 12 12 11 11 11 10 9 9 9 9 9 9 9
22 22 22 22 22 22 22 21 21 22 21 21 21 22 22 22 22 21 21 20 20 21 20 20 20 20 20 20 20 20 20 21 21 20 20 20 18 17 17 17 16 16 17 17 17 17 17 17 16 16 16 16 16 16 15 15 14 14 14 14 14 14 14 15 15 15 14 13 13 13 12 12 12 12 12 11 11 10 10 10 10 9 9 9 9
22 22 22 22 22 21 21 20 20 21 21 21 22 22 22 22 22 21 21 20 21 21 21 20 20 20 20 20 20 20 20 21 21 20 20 20 19 18 17 16 16 16 16 16 17 17 17 17 16 16 16 16 16 16 15 15 15 14 14 14 14 14 14 15 15 15 14 13 13 13 13 12 12 12 12 12 12 11 11 11 10 9 8 8 9
21 21 21 21 21 21 20 20 20 20 20 21 21 21 21 21 21 21 20 20 20 20 20 20 20 20 20 20 20 19 19 20 21 21 20 20 19 18 17 16 16 16 16 16 16 16 16 17 17 16 16 16 16 16 15 15 15 15 14 14 14 14 15 15 15 14 14 13 13 13 13 13 12 13 13 13 12 12 11 11 10 10 9 9 8
20 20 21 21 21 21 21 20 19 20 20 20 20 20 20 20 20 20 19 19 18 18 18 19 20 21 21 21 20 20 19 19 20 21 20 19 19 18 17 17 17 17 16 15 15 15 16 16 17 17 17 16 16 16 15 15 15 15 14 14 14 15 15 15 15 14 14 13 13 13 13 13 13 13 13 13 13 12 12 11 11 10 10 9 9
20 21 21 22 22 22 22 20 19 19 19 19 19 19 19 19 19 19 18 17 17 17 17 18 18 19 20 21 20 20 19 19 19 19 19 19 19 17 16 17 18 17 15 15 15 15 16 17 17 17 17 17 16 16 15 15 15 15 15 15 15 15 14 14 14 14 14 13 13 12 12 12 13 13 13 13 13 12 12 11 11 10 10 10 10
21 21 21 22 23 23 22 21 19 18 18 18 17 17 18 18 18 18 17 17 16 16 17 17 16 17 18 20 20 20 20 19 18 18 19 19 19 18 17 16 17 16 15 16 17 17 17 17 17 17 17 17 17 16 16 15 15 15 15 15 15 15 14 14 14 13 13 13 12 12 12 12 13 13 13 14 13 12 12 11 11 11 11 11 11
21 21 21 21 21 21 21 20 18 17 17 17 17 17 17 17 17 17 16 16 15 15 16 16 16 16 17 18 19 19 19 18 18 18 18 18 17 17 17 17 16 16 15 16 16 16 17 17 17 17 17 17 16 16 16 15 15 15 15 15 15 15 14 14 13 13 13 12 12 12 12 13 13 13 13 13 13 12 12 11 11 11 11 11 11
20 19 19 19 17 18 19 19 17 16 16 16 16 16 16 16 16 16 16 15 15 15 15 16 15 15 15 16 17 18 18 18 17 17 17 17 16 17 17 17 17 17 15 15 16 16 16 16 16 16 16 15 15 15 15 15 15 15 15 15 15 14 14 14 13 12 12 11 12 12 13 13 14 13 13 13 13 13 12 12 11 11 11 11 11
16 15 16 16 15 16 18 18 16 16 16 16 16 15 15 15 15 15 15 15 15 15 15 15 15 14 14 15 16 17 17 17 17 17 17 17 17 17 17 16 16 16 15 15 16 16 16 15 15 15 14 14 13 13 14 14 15 14 15 14 14 14 14 14 13 12 12 12 12 12 13 14 14 13 13 13 13 13 12 12 12 11 11 11 11
14 14 14 15 14 15 16 16 15 16 16 15 15 15 15 14 14 15 15 14 14 14 15 15 15 14 14 15 16 16 16 17 17 18 17 17 17 16 16 16 16 15 15 16 16 16 16 15 15 15 14 13 12 12 13 13 13 13 14 14 14 14 14 14 13 13 13 12 12 13 13 13 13 13 13 13 13 13 12 12 12 11 11 11 10
15 15 15 14 14 15 15 15 15 15 15 15 15 14 14 14 14 14 14 14 14 14 14 14 15 15 15 15 15 15 15 16 17 17 16 16 15 15 15 15 15 15 15 16 16 16 15 15 14 13 12 12 11 11 11 12 12 12 13 13 14 14 14 13 12 12 12 12 12 12 12 12 13 13 13 13 13 13 12 12 11 11 11 10 10
15 15 15 15 14 14 15 15 15 15 15 15 15 14 14 14 14 14 14 13 13 13 13 14 14 14 14 14 13 13 14 15 16 15 15 15 14 14 14 15 15 14 15 16 15 15 14 14 13 11 11 11 11 10 10 11 11 11 12 12 12 13 12 12 12 12 12 12 11 12 12 12 12 13 13 12 13 13 12 12 11 11 10 10 9
15 14 14 14 14 14 14 14 14 14 14 15 15 15 14 14 14 14 14 13 14 14 14 14 14 14 13 14 14 13 13 14 15 15 15 15 15 15 15 15 14 14 14 14 14 13 13 11 10 10 11 12 12 11 11 11 10 11 11 11 11 11 11 11 12 12 12 11 11 12 11 11 11 12 12 12 13 13 12 11 11 10 10 10 9
14 13 13 13 13 13 13 13 13 14 14 14 14 14 14 14 14 14 14 14 14 14 14 14 15 14 13 14 14 14 14 14 14 15 15 16 16 16 15 15 14 13 13 12 12 12 11 10 9 9 11 12 12 12 13 12 11 10 10 10 10 10 10 10 11 11 11 10 11 11 10 10 10 11 11 11 12 12 11 10 10 9 10 10 9
13 13 13 13 13 13 13 13 13 13 13 14 13 13 12 13 14 14 15 14 14 13 13 14 14 15 14 14 13 14 14 15 15 15 15 15 16 16 16 15 14 13 12 11 11 11 11 9 9 9 10 11 12 13 13 12 11 10 10 10 10 10 10 11 11 11 10 10 10 10 10 10 10 10 11 11 11 11 10 9 9 9 9 9 10
13 13 13 13 13 13 13 13 13 12 12 12 12 12 12 11 11 12 13 14 14 14 14 14 14 14 14 14 13 13 14 14 15 15 15 15 15 15 15 15 15 13 11 10 10 10 10 9 9 10 10 11 13 14 14 13 12 11 10 10 10 11 11 11 11 11 10 10 10 10 10 10 10 10 11 11 10 10 10 9 9 9 8 9 9
14 13 13 13 13 13 13 13 12 12 12 12 11 11 11 11 10 10 11 12 13 13 14 14 14 14 14 14 14 14 14 14 14 15 15 14 14 14 13 14 13 13 11 10 10 10 10 9 10 11 12 12 13 13 13 13 12 11 11 11 11 11 12 11 10 10 10 10 10 10 10 10 10 10 10 10 10 9 9 9 8 8 8 8 9
14 14 14 14 14 13 13 13 12 12 12 11 11 11 11 11 11 10 10 10 10 11 12 13 14 14 14 14 14 13 13 14 14 14 14 14 14 13 13 12 12 11 11 10 10 10 10 9 10 12 12 12 12 12 12 11 11 11 11 12 12 11 11 10 10 10 10 10 9 10 10 10 10 10 10 10 9 9 9 9 9 9 9 9 9
14 14 14 14 14 14 13 13 13 12 12 12 12 11 11 11 11 11 11 10 10 10 11 12 13 14 14 14 13 12 13 13 13 13 13 13 13 12 11 11 11 10 10 10 10 10 9 9 10 11 12 12 12 12 12 11 10 10 11 12 12 11 11 10 10 10 10 9 10 10 9 9 10 10 9 9 9 9 9 9 9 9 9 9 9
14 14 13 13 13 13 13 13 13 13 12 12 12 12 12 12 12 12 11 11 11 10 11 12 13 13 13 13 13 13 13 13 13 13 13 13 12 11 11 10 10 10 10 10 10 10 9 10 10 10 11 11 11 12 11 11 10 10 10 11 11 11 11 11 11 10 10 10 10 10 9 9 10 10 9 9 9 9 9 9 9 9 9 9 9
13 13 13 13 13 13 13 13 13 13 13 13 12 12 12 12 12 12 12 11 11 11 11 11 12 11 11 12 12 12 13 13 13 13 13 12 12 11 10 10 10 9 9 10 10 10 9 10 10 10 10 11 11 12 11 11 10 10 10 10 10 11 11 10 10 10 10 10 10 10 10 10 10 10 9 9 9 9 10 10 9 9 8 8 8
13 13 13 13 13 13 13 13 13 13 13 13 12 12 12 12 12 12 12 11 11 11 10 10 11 10 10 11 11 11 11 12 11 11 11 11 11 11 10 10 9 9 9 9 10 9 9 9 10 10 10 11 11 11 11 11 10 10 10 10 10 10 10 10 9 9 10 10 10 10 10 11 11 10 10 9 10 10 10 10 10 9 9 9 9
13 13 13 13 13 13 13 12 12 13 13 12 12 12 11 11 11 11 11 11 11 10 10 10 10 10 11 11 10 10 10 10 10 10 10 10 10 10 10 9 9 9 9 9 9 9 9 9 9 9 9 10 10 10 10 10 10 10 9 9 9 9 10 10 10 9 9 10 10 10 10 11 11 10 9 10 10 11 11 11 11 10 10 10 10
13 13 13 13 13 13 13 12 12 12 12 12 12 11 11 11 11 11 11 10 10 10 10 10 10 11 11 11 10 10 9 9 10 10 10 9 9 9 9 9 9 9 9 9 9 9 9 9 8 8 8 9 9 9 9 9 9 9 9 9 9 9 9 9 10 10 10 10 10 9 9 10 10 9 10 11 11 11 11 11 10 10 10 10 10
13 13 13 13 12 12 12 12 11 11 12 12 12 12 11 11 11 11 10 10 10 10 10 10 10 10 10 10 10 10 10 10 10 9 9 9 9 9 9 9 9 9 9 8 8 8 8 8 8 8 8 8 8 8 8 8 9 9 9 8 9 9 9 9 10 10 10 10 9 9 9 9 9 9 10 11 11 11 10 10 10 10 10 10 10
13 13 13 13 12 12 11 11 11 11 11 12 12 12 11 11 11 11 10 10 10 10 10 10 10 10 10 10 10 9 9 9 9 8 8 8 8 8 8 9 9 8 8 9 9 8 8 8 8 8 8 9 8 8 8 8 8 9 9 9 9 9 9 9 10 10 10 10 10 10 10 10 9 8 8 9 10 10 10 10 10 9 10 10 10
13 13 13 12 12 12 12 11 11 11 11 11 11 11 11 11 11 11 10 10 10 9 9 9 9 9 9 9 9 9 9 8 8 8 8 8 8 8 8 8 8 8 8 9 9 9 8 8 8 8 8 9 8 8 8 9 9 8 8 8 8 9 10 10 10 10 10 10 10 10 10 10 10 9 8 8 9 10 10 10 10 9 9 9 9
13 12 12 12 12 12 12 12 11 11 11 11 11 11 11 11 11 10 10 9 9 9 9 9 9 8 8 8 8 8 8 8 7 7 7 7 7 7 7 7 8 8 8 9 9 9 8 8 8 8 8 9 9 9 9 9 9 9 8 9 9 9 10 10 10 10 11 10 10 10 10 10 10 10 8 7 9 10 11 10 10 9 9 8 8
12 12 12 11 11 11 12 11 11 11 11 11 11 11 11 11 11 10 10 9 9 9 8 8 8 8 8 8 8 7 7 7 7 6 6 6 6 7 7 7 7 8 8 9 9 9 8 8 8 8 8 9 9 9 9 9 10 10 10 10 10 10 10 10 10 10 10 10 10 10 10 10 10 10 9 8 9 11 11 10 9 9 8 8 9
12 12 11 11 11 11 11 11 11 11 11 11 10 10 10 10 10 10 9 9 9 8 8 8 8 8 7 7 7 7 6 6 6 6 6 6 6 7 7 7 7 8 8 8 8 8 8 8 8 8 8 9 9 9 9 9 10 10 10 10 10 10 10 10 10 10 10 10 10 10 10 10 10 10 9 9 9 10 10 10 9 9 9 9 9
11 11 11 11 11 10 10 10 10 10 10 10 9 9 10 10 9 9 9 8 8 8 8 8 7 7 7 6 6 5 5 5 5 5 5 6 6 7 7 7 7 7 8 8 8 7 8 8 8 8 8 8 8 9 8 8 9 9 9 9 9 9 9 9 9 9 10 10 10 10 11 11 11 10 10 9 10 10 10 10 9 9 9 8 8
10 10 10 10 10 9 9 8 8 8 8 8 8 8 9 9 9 8 8 8 8 8 7 7 7 6 6 5 5 4 4 4 4 4 5 5 6 6 6 6 7 7 7 8 8 8 8 8 8 8 8 8 7 7 8 8 8 8 8 8 8 8 8 9 9 9 9 9 10 11 11 10 10 10 10 9 10 10 10 10 10 9 8 8 7
9 9 9 9 9 9 8 8 8 8 8 8 7 7 8 8 8 8 8 7 7 7 7 6 6 5 4 4 4 4 3 3 3 4 4 4 5 5 5 6 6 7 7 7 8 8 8 8 8 8 8 7 7 7 7 7 7 7 7 8 8 8 8 9 9 9 8 9 9 10 10 10 10 10 9 9 10 10 10 10 10 9 8 7 7
8 8 8 8 8 8 8 8 8 8 8 7 7 7 7 7 7 7 7 7 7 7 6 5 5 4 4 4 3 3 3 3 3 3 4 4 4 5 5 5 6 6 7 7 7 7 7 7 7 7 7 7 6 7 7 6 6 6 7 7 8 8 8 8 9 9 9 9 9 9 9 9 9 9 9 9 9 10 10 10 10 9 8 8 7
Height
803 803 803 804 804 804 804 804 804 804 804 804 804 803 803 803 803 803 803 803 803 803 804 804 804 805 805 805 805 805 805 805 805 805 805 804 804 804 804 804 804 804 803 803 803 802 802 802 802 802 801 801 801 801 801 800 800 799 799 798 797 797 796 796 795 794 792 791 791 790 790 789 787 787 786 785 784 783 782 781 780 778 777 777 776
801 802 802 802 803 802 802 803 803 803 803 802 802 802 801 802 801 801 801 801 801 801 802 802 803 803 803 803 804 803 803 803 803 803 803 803 803 802 803 803 803 802 802 802 801 801 800 800 800 800 800 800 800 800 800 799 799 799 798 797 797 796 796 795 794 793 792 790 790 789 789 788 787 786 785 784 783 783 782 781 780 779 778 777 776
800 800 801 801 801 801 801 802 802 801 801 801 801 801 800 800 800 800 800 799 799 799 800 800 801 801 801 802 802 802 802 801 801 801 801 801 801 801 801 801 801 801 800 800 800 800 799 798 798 798 799 798 798 798 798 798 798 798 797 797 796 796 795 794 794 793 792 790 789 788 788 787 787 786 785 784 783 782 781 781 780 779 778 777 776
799 799 800 800 800 801 800 800 801 800 800 800 800 799 799 799 799 798 798 798 798 798 798 798 799 799 799 799 800 800 800 799 799 799 799 799 799 799 799 799 799 799 798 798 798 798 798 797 796 796 797 797 797 797 797 796 796 796 796 796 795 795 794 794 793 792 792 791 789 788 787 787 786 786 785 784 783 782 781 780 779 779 778 777 776
798 798 799 799 799 799 799 799 799 799 799 799 799 798 798 797 797 797 797 797 796 796 796 796 797 797 797 797 797 797 797 798 798 798 798 798 797 797 797 797 797 797 796 796 796 796 796 795 795 795 795 794 795 795 795 795 795 795 795 795 794 794 793 793 792 792 791 790 789 788 787 786 785 785 784 783 782 781 780 779 779 778 777 777 776
796 796 797 797 797 798 798 798 798 798 798 798 797 797 797 796 796 796 795 795 795 795 794 794 794 794 794 794 795 795 795 796 796 796 796 796 796 795 795 795 795 795 795 794 794 794 794 794 793 793 793 793 793 793 793 793 793 793 793 793 793 793 792 792 791 791 790 790 789 788 787 786 785 784 784 783 782 780 779 778 777 777 776 775 775
794 795 795 795 795 796 796 796 796 796 796 796 796 796 796 796 795 795 794 794 794 793 793 793 793 792 793 793 793 793 793 794 794 794 794 794 794 794 793 793 793 793 793 793 792 793 792 792 792 791 791 791 791 791 792 792 792 792 791 791 791 791 791 791 790 790 789 788 788 787 786 786 785 784 783 782 781 780 779 777 776 776 775 775 774
792 792 793 793 793 793 793 793 794 794 794 794 795 794 794 794 794 794 794 793 792 792 792 792 792 791 791 791 791 791 792 792 792 792 792 792 792 792 791 791 791 791 791 790 791 791 791 790 790 790 789 789 790 790 790 790 790 790 789 789 790 790 790 790 789 789 788 788 787 786 786 785 784 783 782 781 780 780 779 778 777 775 775 774 773
790 790 790 790 790 790 791 791 791 792 792 792 792 792 792 792 793 793 792 792 791 791 791 791 791 790 790 790 790 790 790 790 790 790 790 790 790 790 790 789 789 789 789 788 789 789 789 788 788 788 788 788 788 788 788 788 788 788 788 788 788 788 788 788 788 787 787 786 786 785 785 784 783 783 782 781 781 780 779 778 777 776 775 773 773
788 788 788 788 788 788 789 789 789 789 789 789 789 789 790 790 790 790 790 790 790 790 790 789 789 789 788 788 788 788 788 787 787 788 788 788 788 788 787 787 787 787 787 786 786 786 786 786 786 786 786 786 786 786 786 787 786 786 786 786 786 786 786 786 786 786 785 785 784 784 783 782 782 782 781 781 780 779 778 778 776 775 774 773 772
785 785 785 785 785 786 786 786 787 787 787 787 787 787 787 787 787 787 787 787 787 787 787 787 787 787 786 786 786 786 786 785 785 786 786 786 786 786 785 785 785 785 784 784 784 784 784 784 784 784 784 783 784 784 784 785 785 785 785 785 785 785 784 784 784 784 784 783 783 782 782 781 781 781 780 779 779 779 778 777 776 775 774 773 772
783 783 783 783 783 784 784 784 785 785 785 785 785 785 785 784 784 784 784 784 784 784 784 784 784 784 784 784 784 783 783 782 783 783 783 783 783 783 783 783 782 782 782 782 781 781 781 782 782 782 781 781 781 781 782 782 783 783 783 783 783 783 782 782 782 781 781 781 781 780 780 780 779 779 778 778 777 777 777 776 776 775 774 773 772
781 781 780 781 781 781 782 782 782 782 782 782 782 782 782 782 781 781 780 781 781 781 781 781 781 781 781 781 780 780 780 780 780 780 780 780 780 780 780 780 779 779 779 779 779 779 779 779 779 779 779 779 779 779 779 780 780 780 781 781 780 780 780 780 779 779 779 779 778 778 778 778 777 777 777 776 776 775 775 775 775 774 773 771 771
779 778 778 778 778 778 779 779 779 779 779 779 780 780 779 779 778 778 777 777 777 777 777 777 777 777 777 777 777 776 776 776 776 777 777 777 777 777 777 777 776 776 776 776 776 776 776 776 776 776 776 777 776 776 776 777 777 778 778 778 778 778 778 777 777 776 776 776 776 775 775 776 775 775 775 775 774 773 773 773 773 773 771 770 769
776 776 776 775 775 775 775 776 776 776 776 776 776 776 776 775 775 775 774 774 774 773 773 773 773 773 773 773 773 772 771 771 772 773 773 773 774 774 774 773 773 773 773 773 773 773 773 773 774 774 774 774 774 774 774 774 774 775 775 775 775 775 775 774 774 774 773 773 773 773 773 773 773 773 773 773 772 772 771 771 771 770 769 768 768
774 774 773 773 772 772 773 773 772 772 773 773 773 772 772 771 771 771 771 771 770 770 770 769 769 769 769 769 769 769 767 767 767 768 768 769 770 770 770 769 769 769 769 769 769 769 770 770 770 770 770 771 771 771 771 771 772 772 772 772 772 772 772 772 771 771 771 771 771 771 771 771 771 771 771 771 770 770 769 769 768 768 767 766 766
773 772 771 770 770 770 770 770 769 769 769 769 769 768 768 767 767 767 767 766 766 766 765 765 765 765 765 765 765 764 763 763 764 764 764 764 765 765 765 765 765 765 764 765 765 765 765 766 766 766 767 767 768 768 768 769 768 768 768 769 769 769 769 769 769 768 768 768 769 769 769 768 768 768 768 768 768 768 767 766 765 765 765 765 764
771 770 769 768 768 768 767 767 766 766 765 765 764 764 763 763 762 762 762 762 761 761 761 761 761 761 761 760 760 760 759 759 759 760 760 760 761 761 761 761 761 760 760 760 761 761 761 761 762 762 762 762 763 765 765 765 765 765 765 765 765 765 765 766 766 766 766 766 766 766 766 766 766 766 766 766 765 765 765 763 763 763 763 763 762
769 768 767 766 766 765 764 764 763 762 761 761 760 759 759 758 758 758 758 757 757 757 757 758 758 757 757 756 756 756 755 754 755 755 756 756 757 757 758 757 757 756 756 756 756 756 757 757 758 758 758 758 759 760 762 762 761 761 762 762 762 761 762 763 763 763 763 764 764 764 764 764 763 763 763 763 763 762 762 761 760 760 761 760 760
768 767 766 764 763 762 761 760 759 758 757 756 755 755 754 754 753 753 753 753 753 753 753 754 754 754 753 752 752 752 751 750 751 751 752 752 753 753 754 754 753 752 752 752 752 752 752 753 753 753 753 754 754 756 757 758 758 758 758 759 758 757 758 760 760 760 760 761 761 761 761 761 761 760 760 760 760 759 759 758 758 758 758 757 758
766 765 763 761 760 758 757 756 755 754 753 753 752 751 750 750 749 749 749 749 749 749 749 749 749 748 748 748 748 748 747 747 747 748 749 750 750 749 749 749 748 748 749 750 750 749 748 748 748 748 749 750 750 751 752 754 754 754 754 754 754 754 756 757 757 757 757 758 758 758 758 758 758 757 757 757 757 756 756 755 755 755 755 755 755
764 762 761 759 757 756 754 753 752 751 750 749 749 748 747 746 746 745 745 745 745 745 745 745 745 744 744 744 744 743 743 743 744 745 746 747 747 746 745 744 744 746 748 748 746 744 743 743 743 744 745 746 746 747 747 749 750 750 750 750 751 752 753 753 754 754 754 754 755 755 755 755 755 755 754 754 754 754 753 753 753 753 752 752 752
762 760 758 756 755 753 751 750 749 748 747 747 747 746 744 744 743 743 742 742 741 741 741 741 741 741 741 740 740 739 739 739 740 740 740 741 742 741 741 741 741 742 743 743 740 738 738 738 739 740 741 741 741 742 743 744 744 744 745 746 747 749 749 750 750 750 750 751 751 751 752 752 752 752 752 752 751 751 751 750 751 750 750 749 749
760 758 756 754 753 751 749 748 747 746 745 745 745 744 743 742 742 741 741 740 740 739 738 738 739 738 737 737 736 736 736 736 736 736 735 736 737 737 737 737 738 737 737 736 735 735 735 735 735 737 737 737 738 738 739 739 740 740 741 742 744 745 746 746 746 746 747 747 747 747 748 748 749 749 749 749 749 748 748 748 748 748 747 746 746
758 756 755 753 752 749 747 746 746 745 744 743 743 742 742 741 740 739 738 738 738 738 737 737 737 737 736 735 734 733 733 733 732 732 732 732 733 733 733 733 733 732 731 731 731 730 731 731 732 733 734 734 734 735 735 735 736 736 737 738 740 741 741 741 742 743 742 743 743 743 743 744 745 745 745 746 746 745 745 745 745 745 745 744 744
757 755 753 753 752 748 745 745 745 744 744 743 743 743 743 742 740 739 738 737 737 736 735 735 735 735 734 734 732 731 731 731 730 730 730 730 730 730 730 729 728 727 727 726 725 725 725 727 728 729 730 731 732 732 731 731 732 732 733 734 735 736 736 737 738 738 738 738 738 739 740 741 742 742 742 742 742 742 742 742 742 743 742 742 742
758 756 754 754 752 748 746 746 746 745 744 743 743 743 743 743 741 740 739 738 737 736 734 733 733 732 732 732 731 730 730 729 728 728 727 727 727 726 726 725 723 723 722 720 720 721 721 722 723 724 725 726 728 728 728 728 728 728 728 729 729 730 731 732 733 733 733 734 734 735 736 737 738 738 738 738 738 739 739 739 739 740 740 740 740
761 759 757 756 754 751 749 749 748 747 746 745 744 744 743 742 742 741 741 741 739 738 736 734 732 731 731 730 730 729 729 727 726 726 726 725 725 724 722 721 720 719 717 716 716 716 717 718 719 720 720 722 723 724 724 724 724 724 724 724 725 725 726 727 729 729 729 730 731 731 732 733 734 734 735 735 735 735 736 736 736 737 737 737 737
762 761 759 757 755 753 752 751 749 748 747 745 745 744 743 742 742 741 741 741 741 739 737 734 733 732 730 730 729 729 728 726 725 724 724 723 722 721 719 718 716 715 714 713 713 713 713 713 714 715 716 717 719 720 721 720 720 720 720 720 721 721 722 723 724 724 724 725 726 727 727 729 729 730 731 731 731 732 732 733 733 734 734 735 734
762 761 759 758 756 755 753 752 750 749 747 746 744 743 742 742 741 740 740 739 739 739 737 735 733 731 729 728 728 728 727 725 723 722 721 720 719 718 716 714 713 712 711 712 711 711 710 710 711 712 713 713 713 715 716 717 716 716 715 716 716 717 718 718 718 719 720 721 722 722 723 724 725 726 727 727 727 728 729 729 730 731 731 731 732
763 762 760 758 757 755 754 752 751 749 747 746 744 742 740 739 739 740 740 738 737 738 737 735 732 730 729 728 727 726 725 723 722 720 718 717 715 714 712 710 709 709 709 709 709 708 707 708 709 709 709 708 708 710 711 712 712 711 711 712 712 713 713 714 714 715 716 717 718 718 719 720 721 721 722 723 724 725 725 726 727 728 728 728 729
764 763 761 759 757 755 754 753 751 749 747 745 744 743 741 739 738 738 739 737 735 735 734 732 729 728 727 727 725 724 722 721 719 718 716 714 712 710 709 707 706 705 706 707 706 705 705 705 706 706 706 706 705 705 706 707 707 708 708 708 708 708 709 709 710 711 712 713 713 714 715 715 716 717 718 719 720 721 721 722 723 724 725 725 725
765 763 762 760 758 756 754 752 751 749 747 746 745 743 742 740 738 737 736 735 733 732 730 728 726 726 726 726 724 722 721 719 718 716 714 713 710 708 706 705 703 702 703 703 703 702 702 703 703 703 703 702 702 702 702 702 703 703 704 704 704 704 705 706 707 708 708 708 709 710 710 711 712 713 714 715 716 717 717 718 719 720 722 722 722
766 764 763 760 759 757 755 753 752 750 749 747 746 744 742 741 739 737 735 733 732 730 729 727 725 724 724 723 722 721 720 718 717 715 713 711 709 707 704 703 701 700 700 700 700 700 700 700 700 699 698 697 698 698 698 698 698 699 700 700 700 701 702 702 703 703 703 704 704 705 705 707 708 709 710 711 712 713 714 714 716 717 718 719 719
766 764 763 761 759 758 756 754 753 751 749 748 746 744 743 741 739 738 736 735 733 731 729 728 726 725 723 722 721 720 719 718 716 714 712 710 708 705 703 701 700 699 699 698 698 698 698 697 697 696 695 694 694 694 694 695 695 696 696 696 695 696 697 698 698 699 699 700 700 700 701 703 703 704 706 707 708 709 709 710 711 712 713 714 715
766 765 763 762 760 758 757 755 753 751 750 748 746 745 743 741 739 738 736 735 733 731 729 727 726 725 724 722 720 719 718 717 715 713 711 708 706 704 702 700 699 698 697 697 696 695 695 694 694 693 693 691 690 691 691 692 692 693 693 693 692 692 693 693 694 694 695 696 696 696 697 698 699 700 702 703 704 705 705 706 707 708 709 711 712
766 765 763 762 760 758 757 755 753 752 750 748 746 745 743 741 739 737 735 733 732 730 728 726 725 723 722 721 719 717 716 714 713 710 708 706 704 702 701 699 698 697 696 694 694 693 692 692 691 690 690 689 688 688 688 689 689 690 690 690 689 689 689 689 690 690 691 692 692 693 693 694 695 696 698 699 700 700 701 702 703 705 706 707 709
767 765 764 762 761 759 757 755 753 751 750 748 746 744 743 741 739 737 735 734 732 730 728 726 724 723 721 719 718 716 713 711 709 707 706 704 702 701 699 698 697 696 694 693 692 691 689 689 688 687 686 686 685 685 685 685 685 686 686 686 685 685 685 686 686 687 687 687 688 689 689 690 691 693 694 695 696 696 697 698 700 701 703 704 706
766 765 764 762 760 759 757 755 753 751 749 747 746 744 742 741 739 737 736 734 732 730 728 726 724 722 721 719 717 714 712 709 707 705 703 702 701 699 698 697 695 694 692 691 689 688 687 686 685 684 684 683 682 682 682 681 681 682 682 682 681 681 680 681 682 683 683 683 683 684 685 686 687 688 690 691 691 692 693 695 696 697 699 701 702
766 765 763 762 760 758 757 755 753 751 749 747 745 744 742 741 739 737 736 734 732 730 728 726 724 722 720 718 716 714 712 710 707 705 703 701 699 698 696 695 693 692 690 688 687 685 684 682 681 681 680 679 678 678 678 678 678 678 678 678 678 677 676 676 677 678 679 679 680 680 681 682 683 684 686 687 687 688 689 691 692 694 695 697 698
765 764 762 761 759 757 755 754 752 750 749 747 745 744 742 741 739 737 736 734 732 730 728 726 724 722 719 718 716 714 712 709 707 705 703 700 698 696 694 693 691 689 688 686 684 682 681 680 678 677 677 676 675 675 675 674 674 673 673 674 674 673 672 672 673 674 675 676 676 677 677 678 680 681 681 682 683 684 686 687 689 691 692 694 696
764 763 761 759 758 756 754 753 751 749 748 746 744 743 742 740 738 737 735 733 731 729 727 725 723 720 718 716 715 713 711 708 706 704 702 699 697 695 693 691 689 687 685 683 681 680 678 677 675 674 673 672 671 671 671 671 670 670 669 669 670 669 669 670 671 671 672 672 673 673 674 675 676 677 677 678 679 680 682 684 686 687 689 691 693
763 761 760 758 756 754 753 751 749 748 746 744 743 742 740 739 737 736 734 732 730 728 726 724 721 719 717 715 713 711 709 706 704 702 700 698 695 693 691 689 686 684 682 680 679 677 675 674 672 670 669 668 667 667 667 667 666 665 665 665 665 665 666 667 667 668 668 668 668 669 670 671 672 673 674 675 675 676 678 680 682 683 685 687 689
761 760 758 756 754 752 751 749 747 746 744 743 742 740 739 738 736 734 733 731 729 727 725 723 720 718 715 713 711 709 707 704 703 700 698 696 693 691 688 686 684 682 680 677 675 674 672 670 669 667 665 664 663 663 663 661 660 660 660 660 661 661 662 663 663 663 664 664 664 665 665 665 666 667 669 670 671 672 674 676 678 680 682 684 686
760 758 756 754 753 751 749 747 746 744 743 741 740 739 737 736 735 733 732 730 728 726 724 722 719 717 714 712 709 707 705 703 701 698 696 694 691 689 686 684 682 680 677 675 673 671 669 667 665 663 661 660 659 659 658 657 656 656 656 657 657 658 659 659 659 660 660 661 661 661 661 661 660 662 665 667 668 669 670 672 674 676 678 681 682
760 758 756 754 752 750 748 746 744 743 741 740 738 737 736 734 733 731 730 728 727 725 723 720 718 716 713 710 708 706 703 701 699 696 694 692 689 687 684 682 679 677 675 672 670 668 665 663 662 660 658 657 656 655 655 654 653 653 653 654 654 655 655 656 656 657 657 658 658 658 658 657 657 658 661 664 665 666 668 670 672 673 675 677 679
759 757 755 754 751 749 747 745 743 742 740 739 737 736 734 732 731 729 728 726 725 723 721 718 716 714 711 709 707 704 702 699 697 695 692 689 687 684 682 679 677 674 672 670 667 665 663 661 659 657 655 654 653 652 651 651 651 651 651 651 652 652 652 653 654 654 654 655 655 655 655 655 655 656 659 661 663 665 666 668 669 671 672 674 676
759 757 755 753 751 749 747 745 743 741 739 737 736 734 732 731 729 727 726 725 723 721 719 717 715 712 710 707 705 702 700 697 695 692 690 687 684 682 679 677 674 672 669 667 665 663 661 659 657 655 653 651 650 649 648 648 648 649 649 650 650 650 650 651 652 652 652 653 653 653 652 652 653 654 656 659 661 662 664 665 667 668 669 671 673
758 756 754 752 750 749 746 744 742 740 738 736 735 733 731 729 728 726 725 724 722 720 718 715 713 710 708 705 702 700 698 695 693 690 688 685 682 679 677 674 672 669 667 665 663 661 659 657 655 653 651 649 648 647 646 646 646 646 646 647 647 648 649 649 650 650 651 651 651 651 650 651 652 653 655 657 659 661 662 663 664 665 667 669 671
758 756 754 752 750 748 746 744 742 740 737 735 733 731 729 728 727 725 724 722 720 718 716 714 711 709 706 704 701 699 697 694 692 689 686 683 680 677 675 672 669 667 665 663 661 659 657 655 653 651 649 648 647 646 645 644 644 644 644 645 646 647 648 648 649 649 650 650 649 649 649 650 651 653 654 656 658 659 660 661 661 662 664 666 668
757 755 753 752 749 747 745 743 741 739 737 735 733 731 729 727 726 724 723 721 719 717 715 712 710 708 705 703 701 698 695 693 690 687 684 681 679 676 673 670 667 665 663 662 660 658 656 654 652 651 649 647 646 646 645 645 644 644 645 645 645 646 647 648 648 648 648 648 648 648 649 650 651 652 653 655 656 657 657 658 659 660 662 664 666
Wind_Speed
15 15 15 14 13 13 12 11 11 11 11 12 12 12 12 13 13 14 15 16 18 18 16 13 14 16 16 15 13 13 13 13 13 13 14 15 15 15 14 13 13 13 12 11 10 10 11 11 9 7 6 5 5 4 3 4 4 4 5 5 4 3 2 1 2 5 8 12 14 14 14 14 14 12 12 13 13 12 12 12 12 11 11 10 8
17 17 16 15 15 14 13 13 13 13 13 13 14 14 14 14 14 15 16 17 19 19 18 15 13 15 16 16 15 14 14 14 14 14 15 15 16 16 15 15 14 14 13 11 9 9 10 11 11 9 7 6 6 6 4 4 5 5 5 6 6 4 3 3 3 4 7 12 16 15 14 14 14 13 13 14 14 13 12 12 12 11 11 10 8
18 18 18 17 16 16 15 14 14 15 15 16 16 15 15 15 15 15 16 16 18 19 19 17 15 15 16 16 16 15 14 15 15 16 16 16 16 16 16 16 16 15 14 12 10 9 10 11 11 11 10 9 8 7 6 6 6 7 7 7 7 6 4 5 5 5 6 10 13 15 14 14 14 13 13 14 14 14 13 12 11 11 10 10 9
20 20 20 19 18 17 17 17 16 17 17 17 17 18 17 17 16 16 16 15 16 17 18 19 18 17 17 17 17 16 16 15 15 16 17 17 17 17 17 17 17 16 15 13 11 10 11 11 11 10 11 11 9 8 7 7 7 8 8 8 7 6 6 7 7 6 6 8 11 14 14 14 14 13 13 14 15 14 14 13 12 12 11 10 10
19 20 21 20 19 19 19 19 18 18 18 18 18 18 18 18 18 18 17 16 16 15 16 17 18 18 18 19 18 18 17 17 16 15 15 16 17 18 17 17 17 17 16 15 14 12 12 12 11 9 10 11 11 10 9 9 9 9 10 10 8 8 8 8 8 7 7 8 11 13 14 14 15 14 14 15 17 16 15 14 13 13 13 11 10
18 19 19 19 18 19 20 20 19 19 18 17 17 16 16 16 17 18 18 17 16 15 15 16 17 18 18 19 19 19 18 18 18 16 15 16 17 17 17 17 17 17 17 16 15 14 13 12 11 10 10 11 12 11 10 10 11 10 11 11 10 9 9 8 8 8 8 9 10 11 13 15 16 16 16 16 17 16 16 16 15 14 14 14 13
18 17 17 16 16 17 19 20 20 19 17 16 16 15 14 14 15 15 16 16 16 16 15 15 17 18 19 20 20 20 19 19 19 18 17 17 17 18 18 18 18 18 18 17 16 16 14 12 12 11 11 12 12 11 11 11 11 11 11 12 11 11 10 9 9 9 10 10 10 10 11 13 15 17 18 17 15 13 14 17 17 17 17 17 16
18 17 15 16 16 16 17 19 20 18 17 16 16 16 15 14 14 13 13 15 16 16 16 16 17 18 19 20 21 20 20 20 20 19 18 18 18 18 18 19 19 19 19 19 18 17 16 14 12 12 12 13 13 12 12 12 12 12 12 12 11 11 11 11 10 11 11 11 11 11 11 13 15 17 18 18 15 12 14 14 14 16 18 18 17
19 17 16 17 18 17 17 18 19 18 18 17 16 16 16 16 15 14 13 14 15 15 16 17 17 19 20 20 21 21 21 22 21 21 21 20 19 19 19 20 21 21 21 20 19 18 17 16 14 13 12 13 14 14 13 13 13 13 13 11 11 11 12 12 12 13 13 12 13 13 12 13 15 16 16 16 14 14 15 13 11 13 17 18 16
17 18 18 19 19 19 18 18 18 18 18 16 16 16 16 17 17 17 16 15 15 16 16 17 18 19 20 21 22 22 23 23 23 22 22 22 21 21 21 21 21 22 22 22 22 21 19 18 15 13 13 14 15 15 14 13 12 13 12 12 12 13 13 14 14 14 12 12 13 12 11 13 16 15 13 14 14 13 13 13 12 13 14 15 15
17 18 19 20 20 20 20 19 18 19 18 17 16 16 16 17 19 19 19 18 18 18 18 19 20 21 21 22 23 23 24 24 24 23 22 22 22 22 22 21 21 22 23 24 24 23 21 19 17 15 14 14 16 17 16 14 14 14 14 14 13 14 14 16 16 15 13 13 13 12 11 14 17 17 15 14 13 11 11 12 12 12 11 10 10
19 19 19 19 20 21 21 21 20 20 20 19 18 17 17 18 19 21 21 22 21 21 21 21 22 23 23 24 24 25 25 25 24 24 23 23 23 23 23 22 22 23 24 24 25 24 22 21 19 17 16 14 15 18 18 18 17 16 16 15 15 15 16 17 18 18 16 15 14 15 14 14 16 16 16 14 12 10 11 10 10 10 10 9 10
20 21 20 20 21 22 22 22 22 22 22 22 21 20 20 21 21 22 23 23 24 24 25 25 25 25 26 26 27 28 27 26 25 25 25 25 24 25 25 25 25 25 24 25 25 25 24 22 21 20 18 16 15 17 19 20 20 19 18 17 17 18 18 18 19 19 19 18 17 17 17 15 14 14 13 13 13 12 11 10 11 11 10 10 11
21 22 22 22 22 23 23 23 23 23 24 24 24 24 24 24 23 23 24 24 25 26 27 28 28 28 29 29 30 30 30 29 28 27 27 27 27 27 28 28 28 27 27 26 26 26 25 24 23 22 20 18 17 17 19 21 21 21 21 20 20 19 19 19 20 20 21 20 19 19 18 16 15 14 12 11 12 13 12 12 11 11 12 12 12
21 22 23 24 24 24 25 25 25 24 24 25 26 27 27 27 26 26 26 26 26 27 27 28 29 30 31 31 31 32 32 32 31 30 30 29 29 29 30 30 30 30 30 29 29 28 28 27 26 24 22 20 19 18 19 21 22 23 22 22 21 20 20 20 20 19 20 20 20 20 19 17 16 15 13 12 12 13 13 13 12 13 14 14 13
23 24 24 26 26 26 26 26 27 26 25 26 27 28 29 30 29 29 28 28 28 28 28 29 30 31 31 32 32 33 32 32 31 31 31 30 31 32 32 33 32 32 32 32 31 31 30 29 28 27 26 24 21 19 19 21 23 24 24 24 23 22 21 20 19 18 17 17 19 19 18 18 17 15 14 14 14 14 14 15 16 15 14 12 10
24 26 26 27 27 27 27 28 28 28 28 28 28 29 30 31 31 31 30 30 30 31 31 31 31 32 32 32 33 33 33 31 30 31 31 30 30 32 33 34 34 34 34 34 33 33 33 32 31 30 29 27 24 22 20 22 24 25 25 25 24 23 22 20 18 17 16 15 17 18 18 18 17 16 15 14 14 15 15 16 17 15 11 9 8
24 26 28 29 29 28 28 28 28 29 30 30 30 31 31 32 33 32 31 32 32 32 32 32 32 32 33 33 34 34 34 32 31 31 31 30 30 30 31 33 34 35 36 36 36 36 35 34 33 32 32 31 28 25 22 23 25 26 27 26 25 25 23 19 17 16 15 14 16 17 18 18 17 16 15 14 14 15 15 15 16 13 10 10 10
20 22 24 27 28 29 29 28 28 29 30 31 31 32 33 33 34 33 33 33 33 32 31 30 30 31 33 34 34 34 35 34 33 32 32 31 30 28 29 31 32 33 35 36 37 37 37 36 35 35 34 33 32 29 26 25 26 27 27 26 25 26 25 20 17 15 14 14 15 17 17 17 16 16 15 15 15 15 15 14 13 12 11 12 13
18 19 20 22 24 26 28 28 29 29 30 31 32 32 33 33 33 34 33 33 32 32 31 28 26 27 31 34 35 35 35 35 34 33 32 32 31 29 28 29 31 33 34 35 35 36 36 37 37 36 36 35 34 32 30 28 27 27 27 27 27 28 25 20 17 15 14 15 15 17 17 17 17 17 17 17 16 15 14 12 12 12 12 12 13
20 20 21 22 23 25 25 26 29 30 30 30 31 31 32 32 33 33 32 31 30 30 30 29 26 26 28 31 34 35 35 34 33 32 30 29 30 30 29 29 31 32 31 31 33 34 36 37 36 35 35 35 35 34 33 31 29 28 29 29 29 28 25 21 18 15 15 16 16 17 18 18 18 18 18 18 17 13 11 11 11 12 12 13 14
22 21 21 22 24 26 26 25 25 27 28 28 28 29 29 29 30 30 29 28 27 27 28 28 28 28 28 29 31 34 34 33 32 31 28 26 29 32 31 29 30 29 26 29 34 36 36 37 35 33 33 32 33 33 33 32 32 31 30 30 29 27 25 22 20 17 17 18 18 19 20 19 19 19 19 18 16 11 9 10 11 12 12 13 15
24 23 22 21 22 24 25 24 23 22 24 24 24 26 27 27 27 26 25 25 24 25 26 26 25 26 27 28 30 32 32 31 30 29 28 28 31 35 34 31 28 27 26 30 35 36 36 36 34 32 31 30 31 31 30 30 33 34 32 30 29 28 26 24 23 21 21 21 20 21 22 22 21 21 19 18 15 12 10 10 10 12 13 13 14
27 26 23 21 21 21 21 22 21 20 19 18 18 21 23 24 24 23 22 21 20 22 23 23 22 22 24 26 27 27 26 27 26 25 25 27 29 32 33 32 30 30 31 33 34 35 35 34 32 29 29 29 30 29 27 27 30 32 32 30 29 29 28 27 26 24 23 23 23 24 25 24 23 22 20 18 16 14 13 11 10 11 12 12 12
28 27 26 25 23 19 17 18 19 17 15 14 14 16 18 19 20 19 17 16 16 19 21 20 19 19 20 23 24 22 21 21 21 21 21 21 22 23 25 27 28 30 34 36 35 35 34 33 32 30 30 30 29 28 27 26 26 29 30 31 31 30 30 29 27 26 25 26 26 27 27 25 23 22 21 20 18 17 15 12 10 10 10 10 11
23 21 20 19 17 15 14 15 15 15 15 14 13 13 14 15 16 16 14 13 13 15 17 17 17 17 18 19 20 19 18 18 19 18 17 18 17 17 19 21 22 26 31 36 37 35 33 31 30 30 31 31 29 28 29 27 26 26 28 30 32 32 32 31 30 28 29 29 29 29 28 25 23 22 23 22 20 18 16 13 11 11 10 10 11
22 21 20 20 20 21 21 21 21 21 21 21 20 20 19 18 17 17 15 14 12 12 12 12 12 13 15 16 18 18 18 18 18 18 17 17 17 16 17 19 20 22 27 33 36 36 33 30 28 29 31 32 30 29 29 27 26 26 27 29 32 33 34 34 32 31 31 31 31 30 29 26 25 24 24 24 22 19 16 13 12 12 11 9 10
26 26 26 26 26 25 25 25 24 24 24 23 22 22 23 24 24 22 20 19 18 17 16 14 14 13 14 16 17 18 20 21 21 20 20 19 19 20 20 21 21 22 25 29 32 33 30 27 26 27 28 28 28 28 28 27 27 27 28 29 31 33 34 34 32 32 33 32 31 30 29 28 27 27 26 25 23 20 17 15 14 13 11 9 8
24 24 24 24 24 24 24 23 23 24 24 23 22 21 20 22 24 23 22 21 20 20 19 19 18 16 15 16 17 18 21 23 22 21 21 21 21 22 23 24 25 25 25 27 29 30 27 24 23 24 22 22 24 26 27 27 28 28 30 30 30 32 33 33 33 34 35 33 32 32 31 30 29 28 27 26 24 21 18 16 15 13 12 10 9
21 21 21 22 22 22 23 23 22 23 23 23 23 22 21 21 21 22 23 24 23 21 19 18 18 16 16 17 16 16 19 21 20 19 19 18 18 19 21 23 24 24 24 26 27 28 25 21 20 21 20 21 23 23 25 28 28 29 30 30 30 31 32 33 35 36 35 33 32 33 32 30 29 28 27 26 24 22 19 16 14 14 13 12 10
20 19 19 20 20 20 21 22 22 22 23 22 23 23 24 23 22 19 19 22 23 21 16 14 15 16 17 19 19 17 17 18 19 19 19 19 18 18 19 20 20 20 23 25 26 26 24 21 20 21 22 24 24 23 25 28 29 29 29 28 28 30 31 32 34 35 33 32 32 32 31 30 29 28 27 26 25 22 19 16 14 15 16 14 12
19 19 19 20 20 20 20 20 21 21 22 22 21 21 21 22 21 18 15 15 16 15 13 12 12 12 14 17 19 19 19 20 21 21 21 20 20 19 19 18 16 16 19 22 24 25 24 22 21 21 22 23 23 22 24 27 28 28 27 25 26 28 30 31 32 32 31 32 32 32 31 30 29 28 27 26 24 22 20 17 16 17 17 16 14
19 19 20 22 22 22 21 20 21 21 21 20 20 20 19 18 18 18 18 17 16 14 13 13 11 11 12 14 15 17 19 21 21 22 22 22 21 20 19 17 15 14 15 20 24 25 24 22 20 20 20 21 22 23 24 27 29 29 27 26 27 27 27 28 28 28 29 30 31 31 30 29 28 27 26 25 24 23 21 19 17 17 17 16 15
19 20 22 23 24 23 22 21 21 21 20 20 19 19 18 17 17 18 19 19 19 18 18 17 14 14 14 14 14 16 18 19 19 20 22 22 22 21 20 17 15 13 14 18 23 24 22 20 21 23 23 23 23 24 25 28 29 29 28 28 28 27 26 26 25 26 27 28 28 28 28 27 26 25 25 25 24 22 21 20 18 18 19 18 17
20 21 23 24 25 24 22 21 20 20 20 20 19 18 18 18 17 17 16 16 16 18 20 20 19 17 18 18 17 18 18 18 18 19 20 21 22 22 20 18 16 15 15 17 21 23 23 22 23 25 25 23 23 23 25 27 28 28 28 28 27 27 26 25 25 25 26 26 27 27 26 25 25 25 25 25 23 22 22 21 20 20 21 21 19
18 20 22 23 24 25 23 22 21 20 19 18 18 18 17 17 17 18 18 17 17 17 20 22 21 19 18 19 20 21 20 19 19 19 19 20 20 20 18 17 17 18 18 20 22 23 24 25 26 26 25 24 23 23 25 27 27 27 28 28 28 27 26 25 25 25 25 26 26 26 25 25 25 25 25 24 24 23 23 22 21 21 23 22 21
16 18 19 20 21 23 23 22 21 19 17 16 16 17 17 18 18 19 19 20 21 20 21 23 23 22 20 20 22 23 22 21 21 20 20 20 21 20 18 16 17 18 20 22 23 23 24 25 26 26 26 24 23 23 25 26 27 27 28 28 28 27 27 26 25 24 24 25 25 25 25 25 25 25 24 25 25 24 24 23 21 21 22 21 18
15 16 18 19 19 20 22 22 21 19 16 14 15 15 16 16 18 18 19 20 20 21 21 22 23 23 23 23 23 24 24 24 24 24 23 23 22 21 20 18 18 18 20 22 23 24 24 25 26 26 26 26 26 25 25 26 27 28 29 29 28 27 27 26 26 25 24 24 25 24 23 23 24 24 25 25 25 24 23 23 22 21 20 18 17
15 16 18 19 20 20 20 19 19 18 15 13 14 14 14 15 16 17 19 20 20 20 21 22 22 22 23 24 25 25 25 26 26 26 26 26 25 24 22 20 20 20 21 22 23 24 25 26 27 27 27 28 29 28 28 28 28 29 29 28 26 26 26 26 26 26 25 25 26 25 23 23 24 24 25 26 25 24 23 22 23 22 21 19 19
15 17 19 20 21 22 21 20 19 18 16 14 13 14 13 14 15 16 17 18 19 20 21 21 22 23 24 25 25 25 24 24 25 25 26 27 27 27 25 24 23 22 23 24 24 25 25 26 27 27 27 29 30 31 31 29 28 28 28 25 24 26 27 26 25 25 25 25 26 25 25 24 24 24 25 26 25 24 23 23 23 23 22 20 19
17 19 21 22 23 23 23 22 20 19 17 15 14 13 13 14 14 15 16 17 17 19 19 21 22 24 25 26 26 24 24 24 25 25 26 27 27 28 28 27 26 25 25 25 25 25 25 26 26 25 26 28 29 29 30 30 28 28 28 25 24 26 28 24 22 23 24 24 25 25 24 25 25 25 26 27 26 24 23 23 22 22 21 20 19
18 20 23 24 24 24 24 24 22 20 18 16 14 13 13 13 14 14 15 15 16 17 19 21 23 25 26 26 25 25 24 24 24 25 26 28 28 29 29 29 28 27 26 26 26 25 24 25 25 26 27 28 28 27 28 29 29 28 28 26 26 27 27 23 22 23 23 23 22 22 21 22 23 25 27 27 25 24 23 23 22 22 21 20 19
18 19 21 23 24 24 24 24 22 20 18 17 15 13 13 14 14 15 15 15 15 17 19 21 24 26 27 27 26 25 25 25 25 25 27 29 30 30 30 30 29 28 28 27 26 26 25 25 26 27 27 27 27 26 26 26 27 28 28 26 26 27 25 23 23 22 22 22 22 21 21 21 22 24 27 27 25 23 22 22 22 22 21 21 20
19 20 21 21 22 22 22 21 20 18 18 17 16 15 14 15 16 16 16 16 17 19 21 23 25 26 27 28 27 27 26 26 26 26 28 29 30 30 30 30 29 28 28 27 26 26 26 25 26 26 26 26 26 24 22 23 25 27 27 27 26 25 24 23 22 21 21 21 21 20 22 23 22 22 25 27 26 23 21 21 22 22 22 21 21
19 18 18 18 18 19 19 18 18 17 17 17 17 16 15 16 17 18 17 17 19 21 23 25 26 26 27 28 28 28 27 27 27 27 28 29 30 30 29 28 27 27 28 28 27 26 26 25 25 25 25 24 24 23 21 21 22 23 24 25 25 25 24 23 21 18 19 20 18 16 18 21 20 20 23 25 24 22 21 21 22 22 22 22 22
17 17 17 18 18 18 18 18 17 17 17 18 18 18 18 18 19 19 17 17 19 22 24 25 26 26 27 27 28 28 28 27 27 28 28 29 29 29 29 28 28 27 28 29 28 26 25 24 24 23 23 22 21 21 20 19 19 19 21 22 24 25 23 22 19 18 20 22 20 16 15 15 15 16 19 22 22 20 20 21 22 22 23 24 24
19 20 20 20 20 20 20 19 19 19 19 19 20 20 20 20 19 18 17 17 19 22 24 25 26 26 27 27 28 28 27 27 28 28 28 28 29 29 29 29 29 29 29 29 28 26 24 23 22 21 20 19 19 19 19 18 18 19 20 21 23 24 22 20 20 20 21 22 20 18 16 14 13 13 16 20 21 20 20 20 20 21 22 23 24
20 20 20 21 21 22 22 21 21 21 21 21 21 20 21 21 19 17 16 17 20 22 24 25 26 26 27 27 27 26 26 27 27 27 26 27 28 29 29 29 30 30 28 26 25 24 23 22 21 20 19 18 18 19 20 20 20 20 20 20 23 23 21 19 19 19 19 19 18 16 15 14 13 12 15 18 19 18 18 19 20 20 21 22 23
19 19 20 20 21 21 22 22 22 21 21 21 21 21 22 21 19 17 16 19 21 23 24 25 26 26 25 24 24 23 24 25 25 24 24 24 25 27 29 30 30 29 27 24 23 23 22 21 20 19 19 18 17 17 17 18 20 20 19 18 19 18 16 13 13 15 16 17 15 13 12 12 12 11 13 15 16 16 17 18 19 19 20 21 22
18 18 19 20 21 22 22 23 23 23 23 22 22 23 22 20 18 16 18 21 23 24 25 26 26 25 22 20 21 22 23 23 23 23 23 23 24 26 29 31 30 28 24 23 22 22 21 20 19 18 17 15 14 14 14 15 16 16 15 14 13 12 11 9 9 10 12 14 13 12 12 13 13 13 14 16 16 16 16 16 17 18 19 20 22
17 17 19 20 21 22 23 24 25 25 25 25 24 24 22 19 18 19 21 22 23 24 26 26 25 22 20 18 19 22 24 25 26 26 27 27 28 29 30 31 29 25 22 22 22 20 18 17 18 17 15 12 10 8 8 8 7 7 8 8 8 8 8 9 8 9 10 11 11 12 12 13 15 16 17 17 17 16 15 15 15 16 17 19 21
Wind_Direction
260 259 257 257 258 258 257 256 258 260 263 264 264 265 265 264 264 266 266 268 267 258 253 260 258 249 248 249 254 260 261 261 265 268 271 274 276 277 277 277 280 284 290 294 294 288 279 274 277 287 288 272 271 285 281 271 287 308 324 331 342 345 316 268 243 293 328 342 342 345 350 346 347 354 352 351 357 1 7 11 9 5 6 8 6
257 258 257 257 258 259 258 256 256 257 258 260 262 264 266 267 268 269 269 268 268 261 255 258 262 254 248 246 250 258 261 259 261 264 269 274 277 280 279 275 275 278 283 288 295 296 287 277 272 275 279 271 266 271 278 282 285 293 309 320 327 324 300 291 279 266 304 326 330 332 341 344 344 350 349 346 348 349 353 3 9 9 10 10 6
258 259 259 259 259 260 260 258 256 257 257 257 259 262 264 267 269 271 273 272 271 266 258 255 259 257 248 246 249 253 257 260 260 261 265 270 276 280 282 278 273 274 277 280 287 293 291 284 276 271 270 268 264 263 274 290 289 286 294 307 315 316 304 298 293 274 287 311 321 326 334 339 342 348 347 342 341 340 340 347 355 2 11 14 10
260 260 260 261 261 259 260 259 257 257 258 259 260 262 264 265 267 269 271 273 272 271 264 256 255 256 249 246 249 249 252 257 258 260 263 266 271 276 279 277 271 271 274 276 278 285 288 287 283 275 266 260 256 259 269 283 288 286 287 292 298 303 304 298 293 289 287 298 314 325 332 335 338 344 346 342 341 338 336 337 339 342 352 4 10
262 263 264 264 262 259 257 259 260 260 262 265 265 267 268 268 269 269 269 270 270 271 269 259 253 252 247 244 246 248 249 251 254 259 263 266 268 270 272 272 269 268 270 272 272 277 283 287 286 278 263 252 248 255 264 271 280 287 288 287 285 287 294 295 292 294 289 291 307 323 333 336 335 339 343 342 340 338 336 336 336 337 337 340 352
265 267 266 266 264 259 256 258 261 264 267 268 267 267 271 272 272 271 269 268 266 266 267 260 252 250 246 242 245 248 248 248 252 258 264 267 266 265 265 265 265 265 266 267 268 271 278 285 286 275 260 250 248 252 258 265 275 284 287 287 283 280 284 289 290 293 298 303 308 318 333 338 336 336 339 339 337 335 337 338 338 342 342 337 340
265 265 260 260 261 258 255 257 260 265 269 267 263 263 266 270 273 275 273 270 267 263 262 257 252 250 248 244 244 247 248 249 253 258 263 265 263 261 262 262 263 263 263 264 265 266 273 282 284 275 259 250 250 252 256 264 273 279 280 281 279 277 280 284 286 289 296 307 310 313 325 333 334 334 335 337 337 335 339 338 334 339 345 343 341
260 260 252 249 252 252 253 255 257 263 267 263 258 261 264 265 269 275 273 268 264 262 261 258 254 251 249 246 246 248 249 251 254 258 261 261 260 260 261 262 263 263 262 263 263 264 269 277 281 277 264 253 251 252 256 264 272 274 274 274 274 276 280 282 282 286 292 297 301 306 314 321 327 332 335 340 340 333 335 335 326 329 337 338 339
257 256 249 246 248 249 252 253 254 258 261 257 254 258 263 264 264 266 267 264 259 258 258 258 256 253 251 249 249 249 249 251 253 257 260 261 262 264 265 265 264 264 263 263 262 262 266 272 276 277 268 256 250 251 257 265 271 272 270 269 270 275 281 282 280 283 289 292 295 303 310 314 321 329 333 337 335 327 331 336 326 327 333 331 334
258 255 251 250 251 251 252 253 253 253 254 254 252 254 260 264 262 260 261 262 259 255 254 254 254 253 252 251 251 251 252 253 255 257 260 262 265 268 269 267 264 263 262 262 262 262 265 268 273 275 270 257 248 249 255 260 262 266 267 267 269 275 280 282 280 280 282 284 290 298 302 306 316 324 323 326 331 329 333 338 329 328 332 329 329
260 257 254 254 254 254 254 255 253 249 250 255 255 254 256 258 259 259 258 259 259 256 253 251 250 250 251 251 252 252 254 256 257 259 260 261 263 265 266 266 264 262 262 261 262 263 264 266 268 270 270 261 250 247 249 251 250 256 264 266 269 274 276 277 278 277 275 276 282 288 288 295 309 320 320 322 330 329 324 325 320 320 327 325 321
259 258 257 256 255 254 255 256 254 248 247 252 256 255 255 254 255 256 256 257 258 256 254 252 250 250 250 251 253 254 255 257 259 260 261 260 261 261 261 262 263 263 262 261 262 263 264 265 265 266 268 266 257 248 245 246 248 253 260 264 267 273 275 274 274 273 272 272 276 281 284 290 302 315 320 321 323 320 318 320 314 310 310 306 302
259 259 259 257 255 255 256 256 255 250 247 250 253 254 255 255 255 256 256 258 257 256 256 255 254 253 251 252 254 255 257 258 259 260 261 260 260 260 260 261 262 263 263 262 262 262 263 263 262 263 266 266 261 252 244 243 247 251 257 262 267 272 275 275 273 270 269 269 271 277 285 290 297 308 318 319 314 313 315 318 316 308 296 291 290
261 262 262 259 257 256 255 255 255 253 251 250 251 253 254 255 257 257 258 258 257 257 258 258 258 258 256 255 257 259 260 261 261 260 260 260 260 260 260 261 261 263 263 263 262 261 261 261 260 261 264 264 261 255 247 243 244 249 256 261 266 271 274 276 275 269 265 264 267 276 286 293 297 304 312 311 308 308 308 307 308 303 293 286 285
264 264 264 263 261 258 256 256 256 255 254 252 251 252 254 255 257 257 257 257 257 259 261 262 263 263 262 261 260 262 266 267 266 263 261 261 260 260 260 260 259 260 261 262 262 261 260 260 259 259 261 261 260 256 250 244 243 248 255 260 264 269 273 276 278 274 267 264 267 275 284 292 297 300 300 299 300 303 303 299 295 292 292 291 287
268 268 267 267 267 264 261 259 258 258 258 255 253 254 255 256 257 257 257 257 258 259 260 262 264 265 266 265 263 265 270 273 272 269 267 264 261 259 259 258 257 258 259 260 260 260 260 259 257 257 257 258 259 257 252 247 245 247 252 258 263 268 272 276 279 278 270 264 267 274 281 289 294 294 293 293 296 299 299 297 294 291 291 290 286
278 275 274 274 274 272 268 265 263 263 260 257 256 257 258 259 260 259 257 257 258 259 259 261 262 264 265 265 263 265 270 274 274 274 273 269 264 260 258 257 256 255 257 258 259 259 259 259 257 257 256 256 256 255 251 247 246 247 250 256 262 268 271 274 276 274 268 263 266 271 278 285 289 289 291 292 294 295 292 291 296 296 287 280 278
291 288 285 284 283 281 277 271 268 266 263 260 259 259 259 261 262 262 260 259 261 262 263 264 264 264 264 264 265 265 269 273 274 273 274 273 267 262 260 257 255 255 256 257 257 257 258 259 258 256 256 257 256 253 250 246 245 247 250 255 261 266 269 271 273 270 264 262 264 268 273 281 283 286 291 293 293 291 284 286 296 296 277 270 274
309 305 301 298 294 291 286 280 274 270 266 265 264 263 263 263 264 263 262 261 263 265 265 265 268 271 270 268 267 265 267 273 275 272 273 274 269 265 262 256 253 255 256 256 256 256 256 258 258 256 256 258 256 252 249 246 245 246 249 251 256 263 267 269 269 265 258 256 260 264 269 275 280 285 293 297 297 293 286 287 294 287 271 269 273
323 319 314 311 305 299 293 287 281 276 273 271 270 268 267 266 266 265 264 262 263 264 262 261 266 276 279 275 272 269 268 272 276 276 276 275 271 266 259 254 254 255 256 255 255 256 257 257 258 258 257 258 257 254 249 246 246 246 247 247 251 258 264 266 266 262 253 250 255 261 267 274 281 288 295 301 304 300 290 286 287 282 275 271 269
327 324 320 318 315 310 303 294 286 281 279 277 275 273 271 270 269 269 268 266 264 263 263 258 256 262 272 275 274 272 271 272 276 279 280 281 281 272 258 253 256 256 255 257 257 257 258 259 260 261 260 260 259 256 251 246 245 245 246 246 250 256 261 264 265 260 252 250 254 260 269 277 283 289 295 302 309 307 289 280 282 282 278 275 273
325 322 320 320 319 317 313 306 296 289 285 282 278 277 278 275 273 272 271 269 267 265 264 261 255 256 265 272 275 276 277 276 276 278 278 278 278 273 264 260 259 253 253 261 261 259 260 262 263 265 265 264 263 260 255 249 245 244 246 248 251 255 256 258 260 256 250 250 254 260 269 277 282 288 294 302 312 311 285 273 279 282 281 283 283
322 317 313 313 316 317 316 313 307 299 296 293 286 284 285 282 278 276 273 270 266 264 262 260 258 261 267 272 277 281 284 284 281 281 277 271 267 268 268 268 264 253 250 256 259 260 262 264 265 267 267 266 264 262 258 250 244 243 245 247 250 252 252 252 252 251 248 249 252 259 267 274 280 286 293 301 311 308 283 272 279 283 283 284 289
317 312 307 306 313 321 323 322 319 314 311 310 302 296 295 292 289 286 282 276 269 264 264 263 260 261 266 272 278 284 289 290 289 288 285 278 271 267 268 270 270 262 255 254 258 260 261 264 267 270 269 267 266 264 261 253 245 242 244 246 248 250 249 247 247 246 245 245 248 255 263 270 277 284 291 299 305 301 286 277 279 284 284 281 282
313 312 312 314 320 328 333 336 338 339 340 337 325 314 307 300 297 296 293 287 276 270 271 272 269 267 268 273 281 290 296 297 296 295 293 287 281 275 272 272 273 267 259 256 258 260 260 264 268 270 270 269 267 264 262 256 248 242 242 244 246 246 246 245 244 242 240 241 245 251 258 267 276 284 291 295 299 296 288 281 276 278 282 280 278
329 332 334 337 346 358 2 5 14 23 25 25 18 0 341 325 318 316 311 301 287 278 278 281 282 281 278 281 289 297 303 304 302 303 303 298 295 291 284 278 276 269 261 258 258 259 260 262 264 267 270 269 267 263 260 258 254 247 241 241 242 243 243 243 241 239 239 241 244 249 257 266 275 282 287 290 292 293 290 280 272 270 274 277 279
21 24 26 28 34 40 39 38 41 42 40 41 42 35 25 15 6 357 349 336 321 308 300 295 292 290 290 295 301 303 305 306 306 310 312 309 307 303 293 286 280 270 261 258 257 258 260 260 260 262 265 266 265 263 260 257 255 249 242 239 239 239 241 241 241 241 242 244 246 251 258 265 270 276 281 285 287 290 287 276 267 267 270 272 275
38 38 37 35 35 37 37 34 32 29 25 25 27 26 24 22 18 15 11 1 347 337 328 319 313 311 310 309 308 305 304 304 307 312 316 313 310 305 298 292 286 275 266 261 258 257 259 261 258 256 257 260 261 260 256 253 252 249 244 241 239 239 239 240 240 242 244 245 247 251 255 259 264 271 276 280 282 284 283 274 264 262 264 260 259
33 32 30 29 28 27 25 23 21 17 12 8 6 7 8 9 8 6 5 5 359 349 339 331 327 327 324 319 313 305 302 306 311 314 313 309 305 300 295 292 287 280 274 269 261 257 258 257 250 244 246 253 256 254 253 253 251 248 246 244 242 240 238 237 238 241 243 244 245 248 252 255 260 266 271 274 275 278 278 271 259 252 250 246 244
22 22 20 19 19 17 15 13 11 10 7 1 356 352 350 354 358 352 345 348 351 349 344 342 343 343 339 335 331 317 308 314 324 324 318 313 308 302 297 293 286 280 276 270 261 254 253 250 240 232 233 238 241 243 252 256 253 249 248 245 242 241 239 238 240 242 243 243 245 247 250 253 257 262 265 267 269 272 273 268 257 245 240 237 238
16 16 14 13 11 7 5 4 0 1 3 0 355 351 347 349 353 348 336 335 339 339 340 344 349 352 350 345 343 340 334 336 341 338 333 329 323 317 311 303 292 279 271 265 255 247 243 239 232 226 225 227 229 235 246 253 252 251 249 246 244 242 240 239 242 243 242 244 246 247 248 250 254 258 260 260 263 266 267 263 252 239 235 234 236
18 16 13 11 9 6 2 358 355 357 359 357 353 352 349 346 348 348 345 345 345 343 343 344 344 349 351 346 344 347 349 349 346 343 339 335 329 326 322 311 296 279 266 255 245 241 239 234 228 223 221 223 228 236 246 252 252 250 249 247 246 245 244 244 246 245 244 245 246 246 247 250 252 255 256 255 257 259 260 256 245 236 233 232 236
21 18 14 11 11 9 6 2 359 358 359 356 353 353 351 343 337 338 346 359 7 8 6 1 347 338 341 345 348 351 351 350 346 342 339 336 333 331 327 314 296 277 260 245 237 238 240 235 230 229 227 228 234 242 250 254 254 251 250 250 250 250 253 254 252 248 246 247 247 247 248 250 250 251 251 251 252 254 254 251 243 234 230 230 234
26 23 19 15 13 11 9 8 5 2 1 360 357 355 354 349 342 339 343 352 1 6 11 13 7 353 348 352 357 357 352 348 345 342 340 339 338 337 334 324 305 283 260 243 237 239 241 238 235 236 236 236 239 243 248 252 252 251 251 253 253 254 257 256 251 247 247 247 245 245 247 246 245 245 245 246 247 249 248 245 238 230 226 227 231
30 28 24 20 16 13 10 8 8 5 3 3 3 0 358 358 356 353 348 346 347 349 355 3 7 4 360 360 360 357 352 347 344 343 343 343 343 343 341 332 315 294 271 254 247 246 246 242 240 241 244 246 247 249 252 254 253 250 251 254 256 256 255 251 248 248 247 245 243 244 244 243 242 242 242 242 242 241 240 239 235 229 228 228 229
27 26 24 22 18 14 9 7 6 5 5 6 7 7 7 5 3 0 357 355 352 349 349 355 0 2 2 1 357 354 352 350 346 344 345 346 347 346 342 331 318 305 290 278 268 261 256 251 248 248 251 252 253 256 258 257 255 254 255 256 257 256 254 252 251 250 247 245 245 245 243 242 242 241 240 240 238 238 239 238 235 232 231 229 229
20 18 17 16 15 13 10 6 3 3 6 10 12 12 12 11 8 5 2 359 356 353 351 353 355 355 355 356 354 349 346 346 345 345 346 348 347 345 340 329 317 306 298 292 285 276 269 264 259 256 255 256 258 262 263 262 261 261 261 260 258 258 257 256 255 253 250 248 247 246 244 243 243 241 238 236 235 236 237 236 235 234 232 230 227
10 10 9 6 5 6 7 4 1 358 0 7 10 10 10 9 8 6 2 358 354 351 349 348 349 347 346 349 351 348 344 342 342 344 347 348 346 343 338 329 319 307 300 297 294 286 279 276 272 267 264 264 265 267 269 269 268 267 264 262 260 259 260 260 258 254 252 251 249 248 247 246 245 242 237 234 233 234 235 234 232 229 227 224 222
358 3 3 359 356 356 357 357 356 354 353 356 1 2 2 4 3 0 356 353 349 346 344 343 343 343 345 348 352 351 347 344 342 341 342 343 343 341 336 328 321 313 306 304 302 296 288 285 283 278 275 273 272 271 270 270 267 265 262 260 258 257 256 257 257 254 251 251 250 249 247 247 245 242 237 234 233 234 234 233 231 227 223 221 223
345 350 352 351 349 347 345 346 347 348 347 346 349 351 351 353 354 351 348 346 343 342 342 341 340 343 346 348 349 348 345 341 339 337 335 336 337 337 334 329 324 318 314 311 308 303 298 295 290 284 279 276 273 271 270 268 266 263 260 256 257 258 255 252 254 256 255 254 253 250 249 248 245 240 236 235 236 236 235 234 233 229 226 226 228
325 331 335 337 337 337 337 337 338 341 342 340 340 342 341 341 342 342 341 340 340 341 341 339 338 339 339 340 342 341 338 335 335 335 334 334 334 334 332 330 326 323 319 315 312 308 303 300 294 287 281 277 273 271 271 269 267 263 257 251 252 257 255 251 252 258 259 258 256 254 253 252 247 239 235 235 236 235 234 233 232 229 227 226 228
324 324 326 328 328 328 330 331 332 335 337 336 333 331 330 330 332 332 333 335 336 336 335 334 334 333 333 333 336 335 333 332 333 334 334 333 332 330 330 329 327 325 322 318 314 310 305 301 297 293 289 284 278 274 272 270 267 264 259 252 247 248 250 252 256 259 259 258 257 256 259 260 255 247 241 237 233 231 230 229 228 227 225 222 223
333 328 325 324 324 324 325 327 329 329 329 328 325 322 320 321 324 325 326 328 331 332 330 329 330 331 332 335 337 335 332 332 332 332 332 331 329 327 326 327 327 327 324 321 317 314 309 305 301 299 295 291 287 281 277 274 269 264 262 258 250 245 247 254 259 260 259 256 255 258 262 263 260 253 245 236 229 226 225 224 223 222 222 220 218
328 325 322 321 324 326 327 328 329 327 325 324 322 318 316 318 320 322 323 325 328 330 329 328 328 330 332 335 337 336 333 331 330 329 328 328 326 325 325 326 328 329 327 325 321 317 312 308 305 302 299 296 293 288 282 276 272 267 263 258 251 247 250 256 260 263 262 257 252 251 251 249 249 251 246 235 224 219 218 219 219 219 219 216 213
324 324 325 328 331 332 332 333 332 329 326 325 322 318 316 317 319 321 323 325 328 329 329 329 330 330 330 332 333 332 330 329 327 326 326 326 325 324 324 326 329 330 330 329 326 321 315 310 307 304 301 297 296 293 286 280 275 272 266 258 252 251 256 262 265 265 262 255 246 240 237 235 236 242 241 232 222 217 218 220 220 218 214 211 210
339 341 342 342 341 338 336 335 331 327 325 324 322 320 319 319 319 320 320 323 327 328 328 329 330 330 329 329 328 328 327 326 324 324 324 325 325 325 325 326 328 330 331 331 327 322 318 313 309 304 300 297 295 294 291 286 280 272 264 258 257 258 263 267 266 259 252 247 241 235 235 234 229 229 232 229 225 224 224 224 222 218 214 213 213
350 350 350 348 345 343 340 337 333 329 327 326 324 322 320 318 316 316 317 322 327 328 327 328 329 328 327 326 325 324 324 323 322 321 321 322 324 326 327 327 327 328 329 329 327 324 322 318 312 306 301 296 291 288 286 284 280 273 266 264 264 263 263 264 260 251 245 242 239 237 239 237 228 225 231 232 230 227 224 223 223 222 219 218 217
346 346 346 345 344 343 342 340 337 334 331 329 326 322 319 317 315 315 318 324 327 328 327 328 328 327 325 324 323 322 322 321 320 320 319 319 323 326 327 326 327 326 326 326 326 325 323 319 313 307 303 298 292 289 288 286 282 278 274 272 269 264 258 255 252 244 238 235 235 235 234 228 221 226 233 232 229 228 228 227 227 225 223 222 219
345 345 345 345 346 347 346 345 341 337 334 331 327 323 321 319 316 316 321 325 327 327 328 327 327 326 325 323 322 323 323 322 321 320 318 317 320 324 326 327 327 326 324 324 324 323 322 319 314 309 306 303 299 295 293 289 284 278 271 265 260 255 248 245 243 238 233 233 234 233 227 217 213 223 234 232 229 232 234 233 231 227 222 220 217
350 351 353 354 354 355 354 352 350 346 342 336 330 326 324 321 318 319 324 326 327 328 329 329 328 326 324 322 323 324 325 325 323 322 321 321 321 323 326 327 327 325 324 322 321 321 322 323 323 319 314 309 305 301 297 291 282 270 254 242 239 239 238 241 244 239 237 236 235 236 233 222 214 218 228 230 230 232 233 232 231 226 222 220 217
353 355 357 357 357 357 356 355 354 351 348 343 338 332 328 323 320 323 325 326 327 329 330 329 328 325 322 322 324 327 328 328 328 328 328 328 327 328 329 330 329 327 323 320 321 325 332 338 342 340 333 325 318 315 317 314 298 266 239 230 235 238 237 239 242 246 251 252 249 247 246 236 225 224 229 232 233 233 232 232 232 228 224 222 219